SXS4RM LTAI-EDDC

Flight info

Callsign SXS4RM
Flight time N/A
Altitude 38000
Route EKNUD UQ26 BKZ DCT IBLAX DCT RASUB DCT BUDOP DCT FOGRE DCT PATAK DCT HDO M748 ESLOR Y621 GARKI
Aircraft B38M/M-SDE1FGHILORVWXY/HB1

Departure

Time 2026-05-04 14:05
Airport Antalya International Airport (LTAI)

Arrival

Time N/A
Airport Dresden Airport (EDDC)
Time Latitude Longitude Altitude Speed Heading
2026-05-04 13:54 36.88922 30.80015 195 ft 0 kts 276°
2026-05-04 13:56 36.88922 30.80063 199 ft 4 kts 234°
2026-05-04 13:57 36.88943 30.80076 209 ft 4 kts 188°
2026-05-04 13:57 36.88954 30.80078 200 ft 1 kts 186°
2026-05-04 13:58 36.88955 30.80078 200 ft 0 kts 186°
2026-05-04 14:00 36.88899 30.80070 197 ft 7 kts 186°
2026-05-04 14:00 36.88846 30.80073 200 ft 7 kts 139°
2026-05-04 14:01 36.88835 30.80131 199 ft 8 kts 101°
2026-05-04 14:01 36.88823 30.80222 203 ft 13 kts 97°
2026-05-04 14:01 36.88797 30.80526 195 ft 17 kts 98°
2026-05-04 14:02 36.88704 30.80574 195 ft 17 kts 188°
2026-05-04 14:02 36.88578 30.80555 198 ft 19 kts 185°
2026-05-04 14:02 36.88439 30.80538 195 ft 21 kts 186°
2026-05-04 14:02 36.88289 30.80516 195 ft 23 kts 186°
2026-05-04 14:03 36.88142 30.80496 206 ft 20 kts 186°
2026-05-04 14:03 36.88059 30.80529 194 ft 7 kts 117°
2026-05-04 14:03 36.88057 30.80601 193 ft 11 kts 73°
2026-05-04 14:03 36.88100 30.80696 201 ft 14 kts 55°
2026-05-04 14:04 36.88232 30.80745 193 ft 11 kts
2026-05-04 14:04 36.88504 30.80780 207 ft 79 kts
2026-05-04 14:04 36.89318 30.80893 204 ft 153 kts
2026-05-04 14:05 36.91686 30.81233 1914 ft 177 kts
2026-05-04 14:05 36.92906 30.81790 2752 ft 197 kts 16°
2026-05-04 14:05 36.94199 30.82474 3815 ft 196 kts 16°
2026-05-04 14:06 36.95460 30.83137 4978 ft 200 kts 17°
2026-05-04 14:06 36.96772 30.83823 5858 ft 208 kts 17°
2026-05-04 14:06 36.98119 30.84526 6800 ft 211 kts 18°
2026-05-04 14:06 36.99508 30.85221 7624 ft 222 kts 16°
2026-05-04 14:07 37.01012 30.85946 8224 ft 242 kts 17°
2026-05-04 14:07 37.02645 30.86738 8839 ft 261 kts 18°
2026-05-04 14:07 37.04376 30.87584 9596 ft 272 kts 19°
2026-05-04 14:07 37.06146 30.88440 9924 ft 271 kts 15°
2026-05-04 14:08 37.07970 30.88702 9968 ft 263 kts 351°
2026-05-04 14:08 37.09773 30.88311 10018 ft 264 kts 349°
2026-05-04 14:08 37.11594 30.87899 10047 ft 266 kts 348°
2026-05-04 14:08 37.13397 30.87475 10742 ft 264 kts 348°
2026-05-04 14:09 37.16964 30.86608 11460 ft 260 kts 347°
2026-05-04 14:09 37.18784 30.86155 11287 ft 262 kts 347°
2026-05-04 14:10 37.22498 30.85225 12397 ft 289 kts 347°
2026-05-04 14:10 37.24508 30.84720 12989 ft 301 kts 347°
2026-05-04 14:10 37.26603 30.84192 13614 ft 312 kts 347°
2026-05-04 14:10 37.28742 30.83656 14376 ft 315 kts 346°
2026-05-04 14:11 37.30901 30.83113 15191 ft 316 kts 346°
2026-05-04 14:11 37.35288 30.82003 16658 ft 326 kts 346°
2026-05-04 14:11 37.37525 30.81435 17387 ft 330 kts 346°
2026-05-04 14:12 37.39793 30.80860 18063 ft 335 kts 346°
2026-05-04 14:12 37.42089 30.80304 18680 ft 338 kts 350°
2026-05-04 14:12 37.46870 30.80352 19769 ft 347 kts 358°
2026-05-04 14:13 37.49295 30.80432 20378 ft 350 kts 359°
2026-05-04 14:13 37.51745 30.80539 20997 ft 353 kts 359°
2026-05-04 14:13 37.54211 30.80648 21554 ft 356 kts 359°
2026-05-04 14:13 37.56700 30.80759 22125 ft 360 kts 359°
2026-05-04 14:14 37.59212 30.80871 22651 ft 363 kts 359°
2026-05-04 14:14 37.64318 30.81099 23680 ft 369 kts 359°
2026-05-04 14:14 37.66889 30.81215 24180 ft 371 kts 360°
2026-05-04 14:15 37.71205 30.81409 24974 ft 374 kts 360°
2026-05-04 14:15 37.76421 30.81644 25889 ft 377 kts
2026-05-04 14:16 37.82544 30.81574 26991 ft 379 kts 358°
2026-05-04 14:16 37.84324 30.81538 27379 ft 378 kts 358°
2026-05-04 14:17 37.89549 30.81441 28510 ft 375 kts 358°
2026-05-04 14:17 37.92151 30.81394 29100 ft 372 kts 359°
2026-05-04 14:17 37.97282 30.81302 30232 ft 366 kts 359°
2026-05-04 14:18 37.99834 30.81255 30588 ft 367 kts 359°
2026-05-04 14:18 38.04948 30.81164 31190 ft 370 kts 358°
2026-05-04 14:19 38.10236 30.81069 31217 ft 389 kts 358°
2026-05-04 14:19 38.12918 30.80982 31496 ft 390 kts 354°
2026-05-04 14:19 38.15598 30.80471 31887 ft 389 kts 351°
2026-05-04 14:19 38.18282 30.79995 32207 ft 390 kts 352°
2026-05-04 14:20 38.20976 30.79538 32554 ft 391 kts 352°
2026-05-04 14:20 38.23678 30.79092 32742 ft 396 kts 352°
2026-05-04 14:20 38.26454 30.78639 32604 ft 408 kts 352°
2026-05-04 14:21 38.32207 30.77705 32601 ft 424 kts 352°
2026-05-04 14:21 38.35140 30.77228 32932 ft 425 kts 352°
2026-05-04 14:21 38.38071 30.76751 33278 ft 425 kts 352°